Time,TemperatureF,DewpointF,PressureIn,WindDirection,WindDirectionDegrees,WindSpeedMPH,WindSpeedGustMPH,Humidity,HourlyPrecipIn,Conditions,Clouds,dailyrainin,SoftwareType,DateUTC
2013-09-20 00:02:00,56.1,54.3,29.47,NNE,23,0.0,0.0,94,-99.99,,,-99.99,WSDL version 423,2013-09-20 04:02:00,
2013-09-20 00:07:00,56.1,54.5,29.47,NNE,23,0.0,0.0,94,-99.99,,,-99.99,WSDL version 423,2013-09-20 04:07:00,
2013-09-20 00:12:00,56.1,54.5,29.47,NNE,15,0.0,0.0,94,-99.99,,,-99.99,WSDL version 423,2013-09-20 04:12:00,
2013-09-20 00:19:00,56.2,54.9,29.47,NNW,338,0.0,0.0,96,-99.99,,,-99.99,WSDL version 423,2013-09-20 04:19:00,
2013-09-20 00:24:00,56.3,55.2,29.47,NE,39,0.0,0.0,97,-99.99,,,-99.99,WSDL version 423,2013-09-20 04:24:00,
2013-09-20 00:29:00,56.3,55.4,29.47,NE,45,0.0,0.0,97,-99.99,,,-99.99,WSDL version 423,2013-09-20 04:29:00,
2013-09-20 00:34:00,56.3,55.4,29.47,NE,45,0.0,0.0,97,-99.99,,,-99.99,WSDL version 423,2013-09-20 04:34:00,
2013-09-20 00:39:00,56.3,55.4,29.47,NE,45,0.0,0.0,97,-99.99,,,-99.99,WSDL version 423,2013-09-20 04:39:00,
2013-09-20 00:44:00,56.3,55.4,29.47,NE,45,0.0,0.0,97,-99.99,,,-99.99,WSDL version 423,2013-09-20 04:44:00,
2013-09-20 00:49:00,56.3,55.4,29.47,NE,45,0.0,0.0,97,-99.99,,,-99.99,WSDL version 423,2013-09-20 04:49:00,
2013-09-20 00:54:00,56.1,55.0,29.47,North,360,0.0,0.0,96,-99.99,,,-99.99,WSDL version 423,2013-09-20 04:54:00,
2013-09-20 00:59:00,56.1,55.1,29.47,North,360,0.0,0.0,97,-99.99,,,-99.99,WSDL version 423,2013-09-20 04:59:00,
2013-09-20 01:04:00,56.1,55.2,29.47,NNE,15,0.0,0.0,97,-99.99,,,-99.99,WSDL version 423,2013-09-20 05:04:00,
2013-09-20 01:09:00,56.1,55.1,29.47,NNE,23,0.0,0.0,97,-99.99,,,-99.99,WSDL version 423,2013-09-20 05:09:00,
2013-09-20 01:14:00,55.9,55.0,29.47,North,360,0.0,0.0,97,-99.99,,,-99.99,WSDL version 423,2013-09-20 05:14:00,
2013-09-20 01:19:00,55.9,55.0,29.47,NW,323,0.0,0.0,97,-99.99,,,-99.99,WSDL version 423,2013-09-20 05:19:00,
2013-09-20 01:24:00,55.9,54.9,29.44,NW,315,0.0,0.0,97,-99.99,,,-99.99,WSDL version 423,2013-09-20 05:24:00,
2013-09-20 01:29:00,55.7,54.8,29.44,NW,315,0.0,0.0,97,-99.99,,,-99.99,WSDL version 423,2013-09-20 05:29:00,
2013-09-20 01:34:00,55.6,54.6,29.44,NW,315,0.0,0.0,97,-99.99,,,-99.99,WSDL version 423,2013-09-20 05:34:00,
2013-09-20 01:39:00,55.4,54.5,29.44,NW,315,0.0,0.0,98,-99.99,,,-99.99,WSDL version 423,2013-09-20 05:39:00,
2013-09-20 01:44:00,55.2,54.7,29.44,NW,315,0.0,0.0,99,-99.99,,,-99.99,WSDL version 423,2013-09-20 05:44:00,
2013-09-20 01:49:00,55.0,54.7,29.44,NW,315,0.0,0.0,99,-99.99,,,-99.99,WSDL version 423,2013-09-20 05:49:00,
2013-09-20 01:54:00,54.8,54.5,29.44,NW,315,0.0,0.0,99,-99.99,,,-99.99,WSDL version 423,2013-09-20 05:54:00,
2013-09-20 01:59:00,54.6,54.2,29.44,NW,326,0.0,0.0,98,-99.99,,,-99.99,WSDL version 423,2013-09-20 05:59:00,
2013-09-20 02:04:00,54.5,53.9,29.44,NNW,338,0.0,0.0,98,-99.99,,,-99.99,WSDL version 423,2013-09-20 06:04:00,
2013-09-20 02:09:00,54.3,53.8,29.44,ENE,68,0.0,0.0,99,-99.99,,,-99.99,WSDL version 423,2013-09-20 06:09:00,
2013-09-20 02:14:00,54.3,54.0,29.44,NNW,338,0.0,1.1,99,-99.99,,,-99.99,WSDL version 423,2013-09-20 06:14:00,
2013-09-20 02:19:00,54.3,54.0,29.44,NNW,338,0.0,1.1,99,-99.99,,,-99.99,WSDL version 423,2013-09-20 06:19:00,
2013-09-20 02:24:00,54.3,54.2,29.44,NNW,338,0.0,0.0,100,-99.99,,,-99.99,WSDL version 423,2013-09-20 06:24:00,
2013-09-20 02:29:00,54.3,54.3,29.44,NNW,338,0.0,0.0,100,-99.99,,,-99.99,WSDL version 423,2013-09-20 06:29:00,
2013-09-20 02:34:00,54.2,54.2,29.44,NNW,338,0.0,0.0,100,-99.99,,,-99.99,WSDL version 423,2013-09-20 06:34:00,
2013-09-20 02:39:00,54.1,54.1,29.44,North,360,0.0,0.0,100,-99.99,,,-99.99,WSDL version 423,2013-09-20 06:39:00,
2013-09-20 02:44:00,54.0,54.0,29.44,North,360,0.0,0.0,100,-99.99,,,-99.99,WSDL version 423,2013-09-20 06:44:00,
2013-09-20 02:49:00,54.0,54.0,29.44,NNE,23,0.0,0.0,100,-99.99,,,-99.99,WSDL version 423,2013-09-20 06:49:00,
2013-09-20 02:54:00,54.0,54.0,29.47,NNE,23,0.0,0.0,100,-99.99,,,-99.99,WSDL version 423,2013-09-20 06:54:00,
2013-09-20 02:59:00,54.0,54.0,29.47,NNE,23,0.0,0.0,100,-99.99,,,-99.99,WSDL version 423,2013-09-20 06:59:00,
2013-09-20 03:04:00,54.0,54.0,29.47,NNE,23,0.0,0.0,100,-99.99,,,-99.99,WSDL version 423,2013-09-20 07:04:00,
2013-09-20 03:09:00,53.9,53.9,29.44,NNE,23,0.0,0.0,100,-99.99,,,-99.99,WSDL version 423,2013-09-20 07:09:00,
2013-09-20 03:14:00,53.8,53.8,29.44,East,90,0.0,0.0,100,-99.99,,,-99.99,WSDL version 423,2013-09-20 07:14:00,
2013-09-20 03:19:00,53.5,53.5,29.44,SE,135,0.0,0.0,100,-99.99,,,-99.99,WSDL version 423,2013-09-20 07:19:00,
2013-09-20 03:24:00,53.3,53.3,29.44,SE,135,0.0,0.0,100,-99.99,,,-99.99,WSDL version 423,2013-09-20 07:24:00,
2013-09-20 03:29:00,53.1,53.1,29.44,SE,135,0.0,0.0,100,-99.99,,,-99.99,WSDL version 423,2013-09-20 07:29:00,
2013-09-20 03:34:00,53.0,53.0,29.44,SE,135,0.0,0.0,100,-99.99,,,-99.99,WSDL version 423,2013-09-20 07:34:00,
2013-09-20 03:39:00,52.9,52.9,29.44,SE,135,0.0,0.0,100,-99.99,,,-99.99,WSDL version 423,2013-09-20 07:39:00,
2013-09-20 03:44:00,52.8,52.8,29.44,East,101,0.0,0.0,100,-99.99,,,-99.99,WSDL version 423,2013-09-20 07:44:00,
2013-09-20 03:49:00,52.6,52.6,29.44,NNE,23,0.0,0.0,100,-99.99,,,-99.99,WSDL version 423,2013-09-20 07:49:00,
2013-09-20 03:54:00,52.5,52.5,29.44,NE,42,0.6,1.3,100,-99.99,,,-99.99,WSDL version 423,2013-09-20 07:54:00,
2013-09-20 03:59:00,52.3,52.3,29.44,NE,43,0.0,1.3,100,-99.99,,,-99.99,WSDL version 423,2013-09-20 07:59:00,
2013-09-20 04:04:00,52.5,52.5,29.44,ESE,105,0.0,1.1,100,-99.99,,,-99.99,WSDL version 423,2013-09-20 08:04:00,
2013-09-20 04:09:00,52.5,52.5,29.44,North,360,0.0,0.0,100,-99.99,,,-99.99,WSDL version 423,2013-09-20 08:09:00,
2013-09-20 04:14:00,52.4,52.4,29.44,North,360,0.0,0.0,100,-99.99,,,-99.99,WSDL version 423,2013-09-20 08:14:00,
2013-09-20 04:19:00,52.3,52.3,29.44,North,360,0.0,0.0,100,-99.99,,,-99.99,WSDL version 423,2013-09-20 08:19:00,
2013-09-20 04:24:00,52.0,52.0,29.44,North,360,0.0,0.0,100,-99.99,,,-99.99,WSDL version 423,2013-09-20 08:24:00,
2013-09-20 04:29:00,52.0,52.0,29.44,North,360,0.0,0.0,100,-99.99,,,-99.99,WSDL version 423,2013-09-20 08:29:00,
2013-09-20 04:34:00,51.9,51.9,29.44,NNE,15,0.0,0.0,100,-99.99,,,-99.99,WSDL version 423,2013-09-20 08:34:00,
2013-09-20 04:39:00,51.7,51.7,29.44,East,90,0.0,0.0,100,-99.99,,,-99.99,WSDL version 423,2013-09-20 08:39:00,
2013-09-20 04:44:00,51.6,51.6,29.44,East,90,0.0,0.0,100,-99.99,,,-99.99,WSDL version 423,2013-09-20 08:44:00,
2013-09-20 04:49:00,51.6,51.6,29.44,East,90,0.0,0.0,100,-99.99,,,-99.99,WSDL version 423,2013-09-20 08:49:00,
2013-09-20 04:54:00,51.4,51.4,29.44,East,90,0.0,0.0,100,-99.99,,,-99.99,WSDL version 423,2013-09-20 08:54:00,
2013-09-20 04:59:00,51.3,51.3,29.44,East,90,0.0,0.0,100,-99.99,,,-99.99,WSDL version 423,2013-09-20 08:59:00,
2013-09-20 05:04:00,51.1,51.1,29.44,East,90,0.0,0.0,100,-99.99,,,-99.99,WSDL version 423,2013-09-20 09:04:00,
2013-09-20 05:09:00,51.0,51.0,29.44,East,90,0.0,0.0,100,-99.99,,,-99.99,WSDL version 423,2013-09-20 09:09:00,
2013-09-20 05:14:00,50.9,50.9,29.44,East,90,0.0,0.0,100,-99.99,,,-99.99,WSDL version 423,2013-09-20 09:14:00,
2013-09-20 05:19:00,50.7,50.7,29.44,East,90,0.0,0.0,100,-99.99,,,-99.99,WSDL version 423,2013-09-20 09:19:00,
2013-09-20 05:24:00,50.7,50.7,29.44,NNE,30,0.0,0.0,100,-99.99,,,-99.99,WSDL version 423,2013-09-20 09:24:00,
2013-09-20 05:29:00,50.7,50.7,29.44,North,360,0.0,0.0,100,-99.99,,,-99.99,WSDL version 423,2013-09-20 09:29:00,
2013-09-20 05:34:00,50.7,50.7,29.44,North,360,0.0,0.0,100,-99.99,,,-99.99,WSDL version 423,2013-09-20 09:34:00,
2013-09-20 05:39:00,50.7,50.7,29.44,North,6,0.6,1.3,100,-99.99,,,-99.99,WSDL version 423,2013-09-20 09:39:00,
2013-09-20 05:44:00,50.7,50.7,29.44,NNW,333,0.0,1.3,100,-99.99,,,-99.99,WSDL version 423,2013-09-20 09:44:00,
2013-09-20 05:49:00,50.9,50.9,29.44,North,353,0.0,1.3,100,-99.99,,,-99.99,WSDL version 423,2013-09-20 09:49:00,
2013-09-20 05:54:00,51.0,51.0,29.44,NNW,343,0.0,1.3,100,-99.99,,,-99.99,WSDL version 423,2013-09-20 09:54:00,
2013-09-20 05:59:00,51.1,51.1,29.44,NNW,343,0.0,0.0,100,-99.99,,,-99.99,WSDL version 423,2013-09-20 09:59:00,
2013-09-20 06:04:00,51.1,51.1,29.44,North,360,0.0,0.0,100,-99.99,,,-99.99,WSDL version 423,2013-09-20 10:04:00,
2013-09-20 06:09:00,51.1,51.1,29.47,North,360,0.0,0.0,100,-99.99,,,-99.99,WSDL version 423,2013-09-20 10:09:00,
2013-09-20 06:14:00,51.0,51.0,29.47,NNE,28,0.0,0.0,100,-99.99,,,-99.99,WSDL version 423,2013-09-20 10:14:00,
2013-09-20 06:19:00,50.9,50.9,29.47,NNW,338,0.0,0.0,100,-99.99,,,-99.99,WSDL version 423,2013-09-20 10:19:00,
2013-09-20 06:24:00,50.9,50.9,29.47,NNW,338,0.0,0.0,100,-99.99,,,-99.99,WSDL version 423,2013-09-20 10:24:00,
2013-09-20 06:29:00,50.9,50.9,29.47,NNW,338,0.0,0.0,100,-99.99,,,-99.99,WSDL version 423,2013-09-20 10:29:00,
2013-09-20 06:34:00,50.9,50.9,29.47,NNW,338,0.0,0.0,100,-99.99,,,-99.99,WSDL version 423,2013-09-20 10:34:00,
2013-09-20 06:39:00,50.9,50.9,29.47,NNW,338,0.0,0.0,100,-99.99,,,-99.99,WSDL version 423,2013-09-20 10:39:00,
2013-09-20 06:44:00,50.8,50.7,29.47,NNW,338,0.0,0.0,100,-99.99,,,-99.99,WSDL version 423,2013-09-20 10:44:00,
2013-09-20 06:49:00,50.7,50.7,29.47,NNW,338,0.0,0.0,100,-99.99,,,-99.99,WSDL version 423,2013-09-20 10:49:00,
2013-09-20 06:54:00,50.9,50.9,29.44,NNW,338,0.0,0.0,100,-99.99,,,-99.99,WSDL version 423,2013-09-20 10:54:00,
2013-09-20 06:59:00,50.9,50.9,29.44,NNW,345,0.0,0.0,100,-99.99,,,-99.99,WSDL version 423,2013-09-20 10:59:00,
2013-09-20 07:04:00,51.1,51.1,29.44,North,6,0.0,0.0,100,-99.99,,,-99.99,WSDL version 423,2013-09-20 11:04:00,
2013-09-20 07:09:00,51.1,51.1,29.47,NNE,15,1.0,2.2,100,-99.99,,,-99.99,WSDL version 423,2013-09-20 11:09:00,
2013-09-20 07:14:00,51.2,51.2,29.47,NNE,28,0.0,2.2,100,-99.99,,,-99.99,WSDL version 423,2013-09-20 11:14:00,
2013-09-20 07:19:00,51.4,51.4,29.47,North,6,0.0,1.1,100,-99.99,,,-99.99,WSDL version 423,2013-09-20 11:19:00,
2013-09-20 07:24:00,51.5,51.5,29.44,NNW,335,0.0,1.6,100,-99.99,,,-99.99,WSDL version 423,2013-09-20 11:24:00,
2013-09-20 07:29:00,51.7,51.7,29.44,NW,315,0.0,1.6,100,-99.99,,,-99.99,WSDL version 423,2013-09-20 11:29:00,
2013-09-20 07:34:00,52.0,52.0,29.44,NNE,19,0.0,1.6,100,-99.99,,,-99.99,WSDL version 423,2013-09-20 11:34:00,
2013-09-20 07:39:00,52.2,52.2,29.44,NNW,338,0.0,1.6,100,-99.99,,,-99.99,WSDL version 423,2013-09-20 11:39:00,
2013-09-20 07:44:00,52.5,52.5,29.44,NNW,338,0.0,1.6,100,-99.99,,,-99.99,WSDL version 423,2013-09-20 11:44:00,
2013-09-20 07:49:00,52.9,52.9,29.44,NNW,338,0.0,0.0,100,-99.99,,,-99.99,WSDL version 423,2013-09-20 11:49:00,
2013-09-20 07:54:00,53.1,53.1,29.44,NNW,338,0.0,0.0,100,-99.99,,,-99.99,WSDL version 423,2013-09-20 11:54:00,
2013-09-20 07:59:00,53.4,53.4,29.44,NNW,338,0.0,0.0,100,-99.99,,,-99.99,WSDL version 423,2013-09-20 11:59:00,
2013-09-20 08:04:00,53.5,53.5,29.44,NNW,338,0.0,0.0,100,-99.99,,,-99.99,WSDL version 423,2013-09-20 12:04:00,
2013-09-20 08:09:00,53.7,53.7,29.44,NNW,338,0.0,0.0,100,-99.99,,,-99.99,WSDL version 423,2013-09-20 12:09:00,
2013-09-20 08:14:00,53.9,53.9,29.44,SSW,203,0.0,0.0,100,-99.99,,,-99.99,WSDL version 423,2013-09-20 12:14:00,
2013-09-20 08:19:00,54.3,54.3,29.44,WSW,248,0.0,0.0,100,-99.99,,,-99.99,WSDL version 423,2013-09-20 12:19:00,
2013-09-20 08:24:00,54.6,54.6,29.44,WSW,248,0.0,0.0,100,-99.99,,,-99.99,WSDL version 423,2013-09-20 12:24:00,
2013-09-20 08:29:00,54.9,54.9,29.44,WSW,248,0.0,0.0,100,-99.99,,,-99.99,WSDL version 423,2013-09-20 12:29:00,
2013-09-20 08:34:00,55.2,55.2,29.44,WSW,248,0.0,0.0,100,-99.99,,,-99.99,WSDL version 423,2013-09-20 12:34:00,
2013-09-20 08:39:00,55.7,55.7,29.44,SW,225,0.0,0.0,100,-99.99,,,-99.99,WSDL version 423,2013-09-20 12:39:00,
2013-09-20 08:44:00,56.1,56.1,29.44,SSE,158,0.0,0.0,100,-99.99,,,-99.99,WSDL version 423,2013-09-20 12:44:00,
2013-09-20 08:49:00,56.6,56.6,29.44,NNW,338,0.0,0.9,100,-99.99,,,-99.99,WSDL version 423,2013-09-20 12:49:00,
2013-09-20 08:54:00,57.0,57.0,29.44,NNW,340,0.8,1.3,100,-99.99,,,-99.99,WSDL version 423,2013-09-20 12:54:00,
2013-09-20 08:59:00,57.5,57.5,29.44,North,11,1.3,2.7,100,-99.99,,,-99.99,WSDL version 423,2013-09-20 12:59:00,
2013-09-20 09:04:00,58.1,58.1,29.44,North,11,2.3,2.9,100,-99.99,,,-99.99,WSDL version 423,2013-09-20 13:04:00,
2013-09-20 09:09:00,59.2,59.2,29.44,NE,53,0.0,2.9,100,-99.99,,,-99.99,WSDL version 423,2013-09-20 13:09:00,
2013-09-20 09:14:00,60.4,60.4,29.44,NNW,338,0.0,2.7,100,-99.99,,,-99.99,WSDL version 423,2013-09-20 13:14:00,
2013-09-20 09:19:00,61.9,61.9,29.44,NE,39,0.0,2.0,100,-99.99,,,-99.99,WSDL version 423,2013-09-20 13:19:00,
2013-09-20 09:24:00,63.0,63.0,29.44,North,360,0.0,0.0,100,-99.99,,,-99.99,WSDL version 423,2013-09-20 13:24:00,
2013-09-20 09:29:00,63.9,63.5,29.44,North,360,0.0,0.0,98,-99.99,,,-99.99,WSDL version 423,2013-09-20 13:29:00,
2013-09-20 09:34:00,65.3,64.0,29.44,NW,315,0.0,0.0,96,-99.99,,,-99.99,WSDL version 423,2013-09-20 13:34:00,
2013-09-20 09:39:00,66.4,64.2,29.44,South,185,0.0,0.0,91,-99.99,,,-99.99,WSDL version 423,2013-09-20 13:39:00,
2013-09-20 09:44:00,67.3,62.7,29.44,SSW,203,0.0,0.0,82,-99.99,,,-99.99,WSDL version 423,2013-09-20 13:44:00,
2013-09-20 09:49:00,68.5,62.7,29.44,SSE,166,0.0,0.0,82,-99.99,,,-99.99,WSDL version 423,2013-09-20 13:49:00,
2013-09-20 09:54:00,69.3,63.2,29.44,ENE,68,0.0,0.0,80,-99.99,,,-99.99,WSDL version 423,2013-09-20 13:54:00,
2013-09-20 09:59:00,70.2,62.4,29.44,South,173,0.0,2.0,75,-99.99,,,-99.99,WSDL version 423,2013-09-20 13:59:00,
2013-09-20 10:04:00,71.3,62.1,29.44,SW,225,0.0,2.0,70,-99.99,,,-99.99,WSDL version 423,2013-09-20 14:04:00,
2013-09-20 10:09:00,72.2,61.1,29.44,SW,225,0.0,0.0,66,-99.99,,,-99.99,WSDL version 423,2013-09-20 14:09:00,
2013-09-20 10:14:00,73.2,61.7,29.44,SSW,203,0.0,0.0,67,-99.99,,,-99.99,WSDL version 423,2013-09-20 14:14:00,
2013-09-20 10:19:00,74.1,60.4,29.44,SSW,203,0.0,0.0,62,-99.99,,,-99.99,WSDL version 423,2013-09-20 14:19:00,
2013-09-20 10:24:00,75.1,61.5,29.44,SSW,199,0.3,1.6,60,-99.99,,,-99.99,WSDL version 423,2013-09-20 14:24:00,
2013-09-20 10:29:00,75.8,59.7,29.44,SW,214,0.7,2.7,58,-99.99,,,-99.99,WSDL version 423,2013-09-20 14:29:00,
2013-09-20 10:34:00,76.7,59.6,29.44,SW,233,0.1,2.7,56,-99.99,,,-99.99,WSDL version 423,2013-09-20 14:34:00,
2013-09-20 10:39:00,77.0,58.0,29.44,WSW,248,0.0,1.6,50,-99.99,,,-99.99,WSDL version 423,2013-09-20 14:39:00,
2013-09-20 10:44:00,77.0,56.6,29.44,SW,222,0.0,1.6,49,-99.99,,,-99.99,WSDL version 423,2013-09-20 14:44:00,
2013-09-20 10:49:00,77.1,56.0,29.44,SSE,155,0.4,2.5,48,-99.99,,,-99.99,WSDL version 423,2013-09-20 14:49:00,
2013-09-20 10:54:00,78.0,56.3,29.44,SSW,206,0.0,3.6,47,-99.99,,,-99.99,WSDL version 423,2013-09-20 14:54:00,
2013-09-20 10:59:00,78.6,55.7,29.44,SW,229,0.0,3.6,46,-99.99,,,-99.99,WSDL version 423,2013-09-20 14:59:00,
2013-09-20 11:04:00,79.2,55.3,29.44,North,357,0.6,2.2,41,-99.99,,,-99.99,WSDL version 423,2013-09-20 15:04:00,
2013-09-20 11:09:00,79.1,53.9,29.44,South,186,1.5,3.1,40,-99.99,,,-99.99,WSDL version 423,2013-09-20 15:09:00,
2013-09-20 11:14:00,79.3,53.7,29.44,WSW,238,1.4,3.1,41,-99.99,,,-99.99,WSDL version 423,2013-09-20 15:14:00,
2013-09-20 11:19:00,79.7,53.8,29.44,SW,225,0.0,2.5,41,-99.99,,,-99.99,WSDL version 423,2013-09-20 15:19:00,
2013-09-20 11:24:00,80.1,54.3,29.44,SSW,195,1.0,2.9,41,-99.99,,,-99.99,WSDL version 423,2013-09-20 15:24:00,
2013-09-20 11:29:00,80.5,53.6,29.44,South,191,1.5,2.9,40,-99.99,,,-99.99,WSDL version 423,2013-09-20 15:29:00,
2013-09-20 11:34:00,80.8,53.5,29.44,SSW,198,1.0,3.6,40,-99.99,,,-99.99,WSDL version 423,2013-09-20 15:34:00,
2013-09-20 11:39:00,81.0,53.2,29.44,NE,56,1.1,3.8,38,-99.99,,,-99.99,WSDL version 423,2013-09-20 15:39:00,
2013-09-20 11:44:00,81.2,53.8,29.44,WSW,239,0.9,3.8,38,-99.99,,,-99.99,WSDL version 423,2013-09-20 15:44:00,
2013-09-20 11:49:00,81.6,53.1,29.44,SW,228,0.1,1.6,38,-99.99,,,-99.99,WSDL version 423,2013-09-20 15:49:00,
2013-09-20 11:54:00,82.3,54.0,29.41,SSW,203,0.4,1.6,38,-99.99,,,-99.99,WSDL version 423,2013-09-20 15:54:00,
2013-09-20 11:59:00,82.6,52.3,29.41,SSW,212,1.4,3.8,34,-99.99,,,-99.99,WSDL version 423,2013-09-20 15:59:00,
2013-09-20 12:04:00,82.8,53.0,29.41,South,191,0.0,3.8,37,-99.99,,,-99.99,WSDL version 423,2013-09-20 16:04:00,
2013-09-20 12:09:00,83.4,52.5,29.38,NNE,16,1.2,2.7,34,-99.99,,,-99.99,WSDL version 423,2013-09-20 16:09:00,
2013-09-20 12:14:00,83.3,51.1,29.38,WNW,287,2.0,3.8,32,-99.99,,,-99.99,WSDL version 423,2013-09-20 16:14:00,
2013-09-20 12:19:00,82.5,49.7,29.38,SSE,158,1.5,4.0,32,-99.99,,,-99.99,WSDL version 423,2013-09-20 16:19:00,
2013-09-20 12:24:00,82.1,49.9,29.41,SSW,196,1.5,4.0,34,-99.99,,,-99.99,WSDL version 423,2013-09-20 16:24:00,
2013-09-20 12:29:00,82.5,50.9,29.41,SSW,203,1.2,2.9,34,-99.99,,,-99.99,WSDL version 423,2013-09-20 16:29:00,
2013-09-20 12:34:00,83.2,51.9,29.41,SSW,207,0.8,2.9,34,-99.99,,,-99.99,WSDL version 423,2013-09-20 16:34:00,
2013-09-20 12:39:00,83.0,50.7,29.38,SE,135,2.6,3.8,31,-99.99,,,-99.99,WSDL version 423,2013-09-20 16:39:00,
2013-09-20 12:44:00,82.2,49.7,29.38,WSW,248,1.7,3.8,33,-99.99,,,-99.99,WSDL version 423,2013-09-20 16:44:00,
2013-09-20 12:49:00,82.7,51.4,29.38,South,188,2.0,3.4,34,-99.99,,,-99.99,WSDL version 423,2013-09-20 16:49:00,
2013-09-20 12:54:00,83.0,51.1,29.38,SW,236,1.1,2.5,34,-99.99,,,-99.99,WSDL version 423,2013-09-20 16:54:00,
2013-09-20 12:59:00,83.1,50.9,29.38,South,190,2.1,2.9,33,-99.99,,,-99.99,WSDL version 423,2013-09-20 16:59:00,
2013-09-20 13:04:00,83.3,51.4,29.38,WSW,254,0.0,2.9,33,-99.99,,,-99.99,WSDL version 423,2013-09-20 17:04:00,
2013-09-20 13:09:00,82.9,50.6,29.38,South,186,1.5,3.6,32,-99.99,,,-99.99,WSDL version 423,2013-09-20 17:09:00,
2013-09-20 13:14:00,82.6,50.3,29.38,South,188,1.9,3.6,33,-99.99,,,-99.99,WSDL version 423,2013-09-20 17:14:00,
2013-09-20 13:24:00,82.5,50.1,29.38,SW,230,1.3,3.6,33,-99.99,,,-99.99,WSDL version 423,2013-09-20 17:24:00,
2013-09-20 13:29:00,82.7,51.3,29.38,SSW,197,1.1,3.4,33,-99.99,,,-99.99,WSDL version 423,2013-09-20 17:29:00,
2013-09-20 13:34:00,82.6,50.5,29.38,SSE,149,1.3,5.8,33,-99.99,,,-99.99,WSDL version 423,2013-09-20 17:34:00,
2013-09-20 13:39:00,83.1,51.4,29.38,SSW,195,1.6,5.8,33,-99.99,,,-99.99,WSDL version 423,2013-09-20 17:39:00,
2013-09-20 13:44:00,83.2,50.5,29.38,SSW,195,1.8,4.3,32,-99.99,,,-99.99,WSDL version 423,2013-09-20 17:44:00,
2013-09-20 13:49:00,82.9,50.6,29.38,SSW,210,1.6,3.6,32,-99.99,,,-99.99,WSDL version 423,2013-09-20 17:49:00,
2013-09-20 13:54:00,82.7,50.9,29.38,WNW,284,0.5,2.5,33,-99.99,,,-99.99,WSDL version 423,2013-09-20 17:54:00,
2013-09-20 13:59:00,82.3,50.0,29.38,WSW,252,1.2,3.1,33,-99.99,,,-99.99,WSDL version 423,2013-09-20 17:59:00,
2013-09-20 14:04:00,82.2,50.1,29.38,SW,229,0.9,3.1,33,-99.99,,,-99.99,WSDL version 423,2013-09-20 18:04:00,
2013-09-20 14:09:00,82.3,50.5,29.38,South,191,0.6,5.4,33,-99.99,,,-99.99,WSDL version 423,2013-09-20 18:09:00,
2013-09-20 14:14:00,81.4,48.6,29.38,South,170,1.8,5.4,33,-99.99,,,-99.99,WSDL version 423,2013-09-20 18:14:00,
2013-09-20 14:19:00,81.3,49.5,29.38,SE,143,1.0,5.4,33,-99.99,,,-99.99,WSDL version 423,2013-09-20 18:19:00,
2013-09-20 14:24:00,81.5,50.1,29.35,SW,225,0.0,3.6,34,-99.99,,,-99.99,WSDL version 423,2013-09-20 18:24:00,
2013-09-20 14:29:00,81.8,50.5,29.35,SSW,206,1.4,2.7,33,-99.99,,,-99.99,WSDL version 423,2013-09-20 18:29:00,
2013-09-20 14:34:00,81.9,50.2,29.35,SE,144,1.6,2.7,33,-99.99,,,-99.99,WSDL version 423,2013-09-20 18:34:00,
2013-09-20 14:39:00,81.9,50.0,29.35,South,185,1.3,2.7,33,-99.99,,,-99.99,WSDL version 423,2013-09-20 18:39:00,
2013-09-20 14:44:00,81.9,50.2,29.35,WSW,242,1.2,2.7,33,-99.99,,,-99.99,WSDL version 423,2013-09-20 18:44:00,
2013-09-20 14:49:00,81.9,50.2,29.35,SSE,153,0.7,2.7,34,-99.99,,,-99.99,WSDL version 423,2013-09-20 18:49:00,
2013-09-20 14:54:00,81.9,50.3,29.35,NNE,27,0.4,2.9,33,-99.99,,,-99.99,WSDL version 423,2013-09-20 18:54:00,
2013-09-20 14:59:00,81.9,50.2,29.35,South,174,0.4,2.9,33,-99.99,,,-99.99,WSDL version 423,2013-09-20 18:59:00,
2013-09-20 15:04:00,81.7,49.5,29.35,South,188,1.2,2.5,33,-99.99,,,-99.99,WSDL version 423,2013-09-20 19:04:00,
2013-09-20 15:09:00,81.5,49.7,29.35,SSW,203,1.6,3.1,33,-99.99,,,-99.99,WSDL version 423,2013-09-20 19:09:00,
2013-09-20 15:14:00,81.1,49.1,29.35,West,270,1.1,3.1,32,-99.99,,,-99.99,WSDL version 423,2013-09-20 19:14:00,
2013-09-20 15:19:00,80.5,48.8,29.35,SSW,210,1.1,3.1,34,-99.99,,,-99.99,WSDL version 423,2013-09-20 19:19:00,
2013-09-20 15:24:00,80.0,49.4,29.35,SW,225,0.9,3.1,35,-99.99,,,-99.99,WSDL version 423,2013-09-20 19:24:00,
2013-09-20 15:29:00,79.7,49.8,29.35,SW,234,0.9,3.1,36,-99.99,,,-99.99,WSDL version 423,2013-09-20 19:29:00,
2013-09-20 15:34:00,79.3,49.2,29.35,SSE,150,1.0,3.1,35,-99.99,,,-99.99,WSDL version 423,2013-09-20 19:34:00,
2013-09-20 15:39:00,78.9,49.4,29.35,South,180,1.3,3.1,35,-99.99,,,-99.99,WSDL version 423,2013-09-20 19:39:00,
2013-09-20 15:44:00,78.7,49.7,29.35,SSW,212,2.3,3.8,37,-99.99,,,-99.99,WSDL version 423,2013-09-20 19:44:00,
2013-09-20 15:49:00,78.2,50.0,29.35,SW,225,0.9,3.8,38,-99.99,,,-99.99,WSDL version 423,2013-09-20 19:49:00,
2013-09-20 15:54:00,77.8,50.2,29.35,North,0,0.0,2.2,38,-99.99,,,-99.99,WSDL version 423,2013-09-20 19:54:00,
2013-09-20 15:59:00,77.7,51.0,29.35,SSW,203,0.0,3.1,40,-99.99,,,-99.99,WSDL version 423,2013-09-20 19:59:00,
2013-09-20 16:04:00,77.5,51.3,29.35,SSE,158,2.0,3.1,40,-99.99,,,-99.99,WSDL version 423,2013-09-20 20:04:00,
2013-09-20 16:09:00,77.1,50.9,29.32,SSW,203,2.0,2.9,40,-99.99,,,-99.99,WSDL version 423,2013-09-20 20:09:00,
2013-09-20 16:14:00,76.9,51.4,29.32,South,186,1.2,2.9,41,-99.99,,,-99.99,WSDL version 423,2013-09-20 20:14:00,
2013-09-20 16:19:00,76.6,51.2,29.32,West,270,1.1,1.6,41,-99.99,,,-99.99,WSDL version 423,2013-09-20 20:19:00,
2013-09-20 16:24:00,76.3,51.3,29.32,SW,236,2.0,2.0,42,-99.99,,,-99.99,WSDL version 423,2013-09-20 20:24:00,
2013-09-20 16:29:00,76.1,51.4,29.32,South,180,1.6,2.0,42,-99.99,,,-99.99,WSDL version 423,2013-09-20 20:29:00,
2013-09-20 16:34:00,75.8,51.2,29.32,SW,225,1.3,3.1,43,-99.99,,,-99.99,WSDL version 423,2013-09-20 20:34:00,
2013-09-20 16:39:00,75.6,51.5,29.32,South,185,1.1,3.1,43,-99.99,,,-99.99,WSDL version 423,2013-09-20 20:39:00,
2013-09-20 16:44:00,75.5,51.8,29.32,South,173,1.3,2.0,44,-99.99,,,-99.99,WSDL version 423,2013-09-20 20:44:00,
2013-09-20 16:49:00,75.3,51.9,29.32,SW,225,1.1,4.3,44,-99.99,,,-99.99,WSDL version 423,2013-09-20 20:49:00,
2013-09-20 16:54:00,75.1,52.0,29.32,SW,225,0.9,4.3,45,-99.99,,,-99.99,WSDL version 423,2013-09-20 20:54:00,
2013-09-20 16:59:00,74.8,52.1,29.32,North,0,0.0,2.9,45,-99.99,,,-99.99,WSDL version 423,2013-09-20 20:59:00,
2013-09-20 17:04:00,74.6,52.2,29.32,SSW,203,1.6,2.9,46,-99.99,,,-99.99,WSDL version 423,2013-09-20 21:04:00,
2013-09-20 17:09:00,74.4,52.3,29.32,SSE,150,0.4,2.7,46,-99.99,,,-99.99,WSDL version 423,2013-09-20 21:09:00,
2013-09-20 17:14:00,74.2,52.7,29.32,West,270,1.2,2.0,47,-99.99,,,-99.99,WSDL version 423,2013-09-20 21:14:00,
2013-09-20 17:19:00,74.0,52.6,29.32,WSW,248,1.3,1.6,48,-99.99,,,-99.99,WSDL version 423,2013-09-20 21:19:00,
2013-09-20 17:24:00,73.9,53.1,29.32,West,270,1.1,4.3,49,-99.99,,,-99.99,WSDL version 423,2013-09-20 21:24:00,
2013-09-20 17:29:00,73.8,52.9,29.32,SSW,203,1.9,4.3,48,-99.99,,,-99.99,WSDL version 423,2013-09-20 21:29:00,
2013-09-20 17:34:00,73.6,53.2,29.32,SSW,203,0.0,2.9,49,-99.99,,,-99.99,WSDL version 423,2013-09-20 21:34:00,
2013-09-20 17:39:00,73.4,53.3,29.32,SSW,203,0.9,1.1,49,-99.99,,,-99.99,WSDL version 423,2013-09-20 21:39:00,
2013-09-20 17:44:00,73.2,53.3,29.32,South,191,0.6,1.3,50,-99.99,,,-99.99,WSDL version 423,2013-09-20 21:44:00,
2013-09-20 17:49:00,73.1,53.6,29.32,South,191,0.0,1.3,51,-99.99,,,-99.99,WSDL version 423,2013-09-20 21:49:00,
2013-09-20 17:54:00,73.0,53.8,29.32,NNW,330,0.0,1.6,51,-99.99,,,-99.99,WSDL version 423,2013-09-20 21:54:00,
2013-09-20 17:59:00,72.9,54.2,29.32,East,83,0.0,1.6,52,-99.99,,,-99.99,WSDL version 423,2013-09-20 21:59:00,
2013-09-20 18:04:00,72.7,54.1,29.32,SE,141,0.0,1.6,52,-99.99,,,-99.99,WSDL version 423,2013-09-20 22:04:00,
2013-09-20 18:09:00,72.4,54.0,29.32,SSE,158,0.0,1.6,53,-99.99,,,-99.99,WSDL version 423,2013-09-20 22:09:00,
2013-09-20 18:14:00,72.2,54.2,29.32,West,281,0.6,1.6,53,-99.99,,,-99.99,WSDL version 423,2013-09-20 22:14:00,
2013-09-20 18:19:00,71.9,54.0,29.32,SW,225,0.9,2.0,54,-99.99,,,-99.99,WSDL version 423,2013-09-20 22:19:00,
2013-09-20 18:24:00,71.5,54.2,29.32,SSW,203,0.0,2.0,55,-99.99,,,-99.99,WSDL version 423,2013-09-20 22:24:00,
2013-09-20 18:34:00,70.7,54.4,29.32,NW,326,0.0,1.1,57,-99.99,,,-99.99,WSDL version 423,2013-09-20 22:34:00,
2013-09-20 18:39:00,70.2,54.5,29.32,SSE,158,0.0,0.0,58,-99.99,,,-99.99,WSDL version 423,2013-09-20 22:39:00,
2013-09-20 18:44:00,69.7,54.4,29.32,West,270,0.0,0.0,59,-99.99,,,-99.99,WSDL version 423,2013-09-20 22:44:00,
2013-09-20 18:49:00,69.2,54.5,29.32,SW,218,0.0,0.0,60,-99.99,,,-99.99,WSDL version 423,2013-09-20 22:49:00,
2013-09-20 18:54:00,68.7,54.4,29.32,NNW,338,0.0,0.0,61,-99.99,,,-99.99,WSDL version 423,2013-09-20 22:54:00,
2013-09-20 18:59:00,68.3,54.5,29.32,WSW,248,0.0,0.0,62,-99.99,,,-99.99,WSDL version 423,2013-09-20 22:59:00,
2013-09-20 19:04:00,67.9,54.8,29.32,SW,225,0.0,0.0,64,-99.99,,,-99.99,WSDL version 423,2013-09-20 23:04:00,
2013-09-20 19:09:00,67.6,55.1,29.32,SW,225,0.0,0.0,65,-99.99,,,-99.99,WSDL version 423,2013-09-20 23:09:00,
2013-09-20 19:14:00,67.2,55.3,29.32,SW,225,0.0,0.0,66,-99.99,,,-99.99,WSDL version 423,2013-09-20 23:14:00,
2013-09-20 19:19:00,66.7,55.1,29.32,NW,315,0.0,0.0,67,-99.99,,,-99.99,WSDL version 423,2013-09-20 23:19:00,
2013-09-20 19:24:00,66.2,55.1,29.32,NNW,338,0.0,0.0,68,-99.99,,,-99.99,WSDL version 423,2013-09-20 23:24:00,
2013-09-20 19:29:00,65.8,55.5,29.32,East,90,0.0,0.0,70,-99.99,,,-99.99,WSDL version 423,2013-09-20 23:29:00,
2013-09-20 19:34:00,65.5,55.1,29.32,NNE,33,0.0,0.0,70,-99.99,,,-99.99,WSDL version 423,2013-09-20 23:34:00,
2013-09-20 19:39:00,65.1,55.2,29.32,NNE,15,0.0,0.0,70,-99.99,,,-99.99,WSDL version 423,2013-09-20 23:39:00,
2013-09-20 19:44:00,64.8,55.3,29.32,North,360,0.0,0.0,72,-99.99,,,-99.99,WSDL version 423,2013-09-20 23:44:00,
2013-09-20 19:49:00,64.5,55.3,29.32,NE,45,0.0,0.0,72,-99.99,,,-99.99,WSDL version 423,2013-09-20 23:49:00,
2013-09-20 19:54:00,64.2,55.2,29.32,NE,45,0.0,0.0,73,-99.99,,,-99.99,WSDL version 423,2013-09-20 23:54:00,
2013-09-20 19:59:00,64.0,55.4,29.32,NE,45,0.0,0.0,74,-99.99,,,-99.99,WSDL version 423,2013-09-20 23:59:00,
2013-09-20 20:04:00,63.7,55.3,29.32,North,360,0.0,0.0,75,-99.99,,,-99.99,WSDL version 423,2013-09-21 00:04:00,
2013-09-20 20:09:00,63.5,55.4,29.32,North,360,0.0,0.0,75,-99.99,,,-99.99,WSDL version 423,2013-09-21 00:09:00,
2013-09-20 20:14:00,63.2,55.6,29.32,North,360,0.0,0.0,77,-99.99,,,-99.99,WSDL version 423,2013-09-21 00:14:00,
2013-09-20 20:19:00,63.0,55.9,29.32,ENE,68,0.0,0.0,78,-99.99,,,-99.99,WSDL version 423,2013-09-21 00:19:00,
2013-09-20 20:24:00,62.8,56.0,29.32,ENE,73,0.0,0.0,79,-99.99,,,-99.99,WSDL version 423,2013-09-21 00:24:00,
2013-09-20 20:29:00,62.6,55.9,29.32,North,360,0.0,0.0,78,-99.99,,,-99.99,WSDL version 423,2013-09-21 00:29:00,
2013-09-20 20:34:00,62.5,55.8,29.32,North,360,0.0,0.0,80,-99.99,,,-99.99,WSDL version 423,2013-09-21 00:34:00,
2013-09-20 20:39:00,62.4,56.4,29.29,NNE,13,0.0,0.0,81,-99.99,,,-99.99,WSDL version 423,2013-09-21 00:39:00,
2013-09-20 20:44:00,62.2,56.5,29.29,NE,48,0.0,0.0,81,-99.99,,,-99.99,WSDL version 423,2013-09-21 00:44:00,
2013-09-20 20:49:00,62.2,56.5,29.29,North,6,0.0,0.0,82,-99.99,,,-99.99,WSDL version 423,2013-09-21 00:49:00,
2013-09-20 20:54:00,62.2,57.1,29.29,SSW,203,0.0,0.0,83,-99.99,,,-99.99,WSDL version 423,2013-09-21 00:54:00,
2013-09-20 20:59:00,62.2,57.1,29.29,ENE,63,0.0,0.0,83,-99.99,,,-99.99,WSDL version 423,2013-09-21 00:59:00,
2013-09-20 21:04:00,62.0,56.9,29.29,ENE,68,0.0,0.0,83,-99.99,,,-99.99,WSDL version 423,2013-09-21 01:04:00,
2013-09-20 21:09:00,61.9,56.8,29.29,ENE,68,0.0,0.0,83,-99.99,,,-99.99,WSDL version 423,2013-09-21 01:09:00,
2013-09-20 21:14:00,61.9,56.7,29.29,WSW,248,0.0,0.0,83,-99.99,,,-99.99,WSDL version 423,2013-09-21 01:14:00,
2013-09-20 21:19:00,61.6,56.8,29.29,East,98,0.0,0.0,84,-99.99,,,-99.99,WSDL version 423,2013-09-21 01:19:00,
2013-09-20 21:24:00,61.4,56.7,29.29,North,11,0.0,0.0,84,-99.99,,,-99.99,WSDL version 423,2013-09-21 01:24:00,
2013-09-20 21:29:00,61.3,56.7,29.29,NNW,338,0.0,0.0,86,-99.99,,,-99.99,WSDL version 423,2013-09-21 01:29:00,
2013-09-20 21:34:00,61.1,56.7,29.29,East,96,0.0,0.0,86,-99.99,,,-99.99,WSDL version 423,2013-09-21 01:34:00,
2013-09-20 21:39:00,61.0,56.8,29.29,SSE,160,0.0,0.0,86,-99.99,,,-99.99,WSDL version 423,2013-09-21 01:39:00,
2013-09-20 21:44:00,60.9,56.9,29.29,SW,225,0.0,0.0,87,-99.99,,,-99.99,WSDL version 423,2013-09-21 01:44:00,
2013-09-20 21:49:00,60.6,56.9,29.29,ESE,113,0.0,0.0,88,-99.99,,,-99.99,WSDL version 423,2013-09-21 01:49:00,
2013-09-20 21:54:00,60.4,56.8,29.29,SSE,155,0.0,0.0,89,-99.99,,,-99.99,WSDL version 423,2013-09-21 01:54:00,
2013-09-20 21:59:00,60.1,56.6,29.29,NNW,346,0.0,0.0,88,-99.99,,,-99.99,WSDL version 423,2013-09-21 01:59:00,
2013-09-20 22:04:00,60.0,56.6,29.29,NNW,338,0.0,0.0,89,-99.99,,,-99.99,WSDL version 423,2013-09-21 02:04:00,
2013-09-20 22:09:00,59.8,56.5,29.29,NNE,23,0.8,2.2,89,-99.99,,,-99.99,WSDL version 423,2013-09-21 02:09:00,
2013-09-20 22:14:00,59.7,57.0,29.29,East,93,0.0,2.2,91,-99.99,,,-99.99,WSDL version 423,2013-09-21 02:14:00,
2013-09-20 22:19:00,59.6,57.1,29.29,North,6,0.0,0.0,91,-99.99,,,-99.99,WSDL version 423,2013-09-21 02:19:00,
2013-09-20 22:24:00,59.5,56.9,29.29,NW,321,0.0,0.0,91,-99.99,,,-99.99,WSDL version 423,2013-09-21 02:24:00,
2013-09-20 22:29:00,59.4,57.0,29.29,NW,315,0.0,0.9,92,-99.99,,,-99.99,WSDL version 423,2013-09-21 02:29:00,
2013-09-20 22:34:00,59.5,57.2,29.29,NW,315,0.0,1.3,92,-99.99,,,-99.99,WSDL version 423,2013-09-21 02:34:00,
2013-09-20 22:39:00,59.5,57.6,29.29,NW,315,0.0,1.3,93,-99.99,,,-99.99,WSDL version 423,2013-09-21 02:39:00,
2013-09-20 22:44:00,59.6,57.7,29.29,NW,315,0.0,0.0,93,-99.99,,,-99.99,WSDL version 423,2013-09-21 02:44:00,
2013-09-20 22:49:00,59.7,57.8,29.29,NW,315,0.0,0.0,93,-99.99,,,-99.99,WSDL version 423,2013-09-21 02:49:00,
2013-09-20 22:54:00,59.6,57.7,29.29,North,358,0.0,0.0,93,-99.99,,,-99.99,WSDL version 423,2013-09-21 02:54:00,
2013-09-20 22:59:00,59.5,57.6,29.29,North,360,0.0,0.0,93,-99.99,,,-99.99,WSDL version 423,2013-09-21 02:59:00,
2013-09-20 23:04:00,59.5,57.7,29.29,North,360,0.0,0.0,94,-99.99,,,-99.99,WSDL version 423,2013-09-21 03:04:00,
2013-09-20 23:09:00,59.5,57.7,29.29,NW,315,0.0,0.9,93,-99.99,,,-99.99,WSDL version 423,2013-09-21 03:09:00,
2013-09-20 23:14:00,59.7,57.8,29.29,NNW,335,0.0,0.9,94,-99.99,,,-99.99,WSDL version 423,2013-09-21 03:14:00,
2013-09-20 23:19:00,59.7,58.1,29.29,North,11,0.0,0.0,94,-99.99,,,-99.99,WSDL version 423,2013-09-21 03:19:00,
2013-09-20 23:24:00,59.7,58.1,29.29,NNE,23,0.0,0.0,94,-99.99,,,-99.99,WSDL version 423,2013-09-21 03:24:00,
2013-09-20 23:29:00,59.7,58.1,29.29,NNE,23,0.0,0.0,94,-99.99,,,-99.99,WSDL version 423,2013-09-21 03:29:00,
2013-09-20 23:34:00,59.7,58.1,29.29,North,10,0.0,0.0,94,-99.99,,,-99.99,WSDL version 423,2013-09-21 03:34:00,
2013-09-20 23:39:00,59.8,58.2,29.29,WNW,295,0.0,0.0,94,-99.99,,,-99.99,WSDL version 423,2013-09-21 03:39:00,
2013-09-20 23:44:00,59.9,58.3,29.29,WNW,293,0.0,0.0,94,-99.99,,,-99.99,WSDL version 423,2013-09-21 03:44:00,
2013-09-20 23:49:00,60.0,58.4,29.29,West,270,0.0,0.0,94,-99.99,,,-99.99,WSDL version 423,2013-09-21 03:49:00,
2013-09-20 23:54:00,60.0,58.4,29.29,West,270,0.0,0.0,94,-99.99,,,-99.99,WSDL version 423,2013-09-21 03:54:00,
2013-09-20 23:59:00,60.1,58.5,29.29,SW,225,0.0,0.0,94,-99.99,,,-99.99,WSDL version 423,2013-09-21 03:59:00,